Tracking 17145 objects as of 24-May-2015
HD Live streaming from Space Station

IRIDIUM 33 DEB

Track IRIDIUM 33 DEB now!
10-day predictions
IRIDIUM 33 DEB is classified as:


NORAD ID: 34150
Int'l Code: 1997-051ED
Perigee: 705.2 km
Apogee: 795.0 km
Inclination: 86.5 °
Period: 99.7 minutes
Semi major axis: 7121 km
RCS: 0.0227 m2 (small)
Launch date: September 14, 1997
Source: United States (US)

Note: This is SATELLITE DEBRIS
Your satellite tracking list
Your tracking list is empty





NASA's NSSDC Master Catalog

Two Line Element Set (TLE):
1 34150U 97051ED  15143.81115738  .00004176  00000-0  11700-2 0  9992
2 34150 086.4893 282.2249 0063050 285.1872 240.2709 14.44722308326885

Source of the keplerian elements: AFSPC

N2YO: 381